Starlink 31827

operational
NORAD ID: 59727 Int'l Des: 2024-088 Owner: SPXS Country: US Constellation: starlink
LEOCIRCULAR

Über Starlink 31827

Beschreibung wird geladen...

Live-Position

3D-Globus wird geladen...

Nächste Überflüge

Höhenverlauf

Altitude vs Time

uPlot chart will show altitude changes over time

Zweizeiliger Elementsatz

1 59727U 24088V 25352.87076612 .00000433 00000-0 26750-4 0 9990
2 59727 53.1602 155.6426 0001083 79.4734 280.6389 15.30195980 91427
Epoch: 18. Dez. 2025 • Age: 14 hours

Aktueller Status

Höhe 485.7 km
Geschwindigkeit 7.62 km/s
Subsatellitenpunkt -32.28°S, 125.79°W
Startdatum 10. Mai 2024
Alter 1.6 years
Typ internet

Technische Details

Klassifizierung Payload
Masse 730.00 kg
Trockenmasse 700.00 kg
Gesamtmasse 730.00 kg
Länge 0.30 m
Durchmesser 4.10 m
Spannweite 29.00 m
Form Box + pan
Hersteller SPXS
Bus-Typ Starlink V2M
Phasenstatus In Orbit
Besitzer/Staat SPXS/US

Große Konstellationen

Loading constellations...